Reading, PA

7:47 PM EDT on September 17, 2019 (GMT -0400)
Reading Regional-Spaatz

Weather History for KRDG - August, 2019

Change the Weather History Date:

Saturday, August 24, 2019

  Actual Average Record
Temperature  
Mean Temperature 67 °F 72 °F  
Max Temperature 78 °F 83 °F 95 °F (1943)
Min Temperature 56 °F 62 °F 45 °F (1971)
Degree Days  
Heating Degree Days 0 0  
Month to date heating degree days 0 0  
Since 1 June heating degree days 16 25  
Since 1 July heating degree days 0 1  
Cooling Degree Days 2 7  
Month to date cooling degree days 287 204  
Year to date cooling degree days 1025 756  
Since 1 June cooling degree days 920 696  
Growing Degree Days 17 (Base 50)    
Moisture  
Dew Point 54 °F    
Average Humidity 66    
Maximum Humidity 100    
Minimum Humidity 36    
Precipitation  
Precipitation 0.00 in 0.12 in 1.60 in (1945)
Month to date precipitation 1.79 2.84  
Year to date precipitation 40.08 28.16  
Sea Level Pressure  
Sea Level Pressure 30.19 in    
Wind  
Wind Speed 4 mph ()    
Max Wind Speed 14 mph    
Max Gust Speed 18 mph    
Visibility 10.0 miles    
Events      
T = Trace of Precipitation, MM = Missing Value Source: Averaged Metar Reports

Daily Weather History Graph

Daily Weather History Graph

Search for Another Location

Airport or City:

Astronomy

Aug. 24, 2019 Rise Set
Actual Time 6:23 AM EDT 7:48 PM EDT
Civil Twilight 5:54 AM EDT 8:16 PM EDT
Nautical Twilight 5:20 AM EDT 8:51 PM EDT
Astronomical Twilight 4:44 AM EDT 9:27 PM EDT
Moon 12:14 AM EDT (8/24) 3:02 PM EDT (8/24)
Length of Visible Light 14h 22m
Length of Day
13h 25m
Last Quarter, 39% of the Moon is Illuminated
Aug 24
Last Quarter
Aug 30
New
Sep 5
First Quarter
Sep 14
Full
Sep 21
Last Quarter

Hourly Weather History & Observations

Time (EDT) Temp. Dew Point Humidity Pressure Visibility Wind Dir Wind Speed Gust Speed Precip Events Conditions
12:54 AM 61.0 °F 60.1 °F 97% 30.12 in 10.0 mi Calm Calm - N/A   Clear
1:54 AM 59.0 °F 57.9 °F 96% 30.12 in 10.0 mi NW 3.5 mph - N/A   Clear
2:54 AM 57.9 °F 55.9 °F 93% 30.12 in 10.0 mi NNW 5.8 mph - N/A   Clear
3:54 AM 57.9 °F 55.9 °F 93% 30.13 in 10.0 mi WNW 4.6 mph - N/A   Clear
4:54 AM 57.0 °F 55.0 °F 93% 30.14 in 10.0 mi Calm Calm - N/A   Clear
5:54 AM 57.9 °F 55.0 °F 90% 30.16 in 10.0 mi NW 3.5 mph - N/A   Partly Cloudy
6:54 AM 57.9 °F 55.0 °F 90% 30.19 in 10.0 mi NNW 3.5 mph - N/A   Mostly Cloudy
7:54 AM 59.0 °F 55.9 °F 90% 30.21 in 10.0 mi Calm Calm - N/A   Scattered Clouds
8:54 AM 63.0 °F 57.0 °F 81% 30.21 in 10.0 mi North 5.8 mph - N/A   Clear
9:54 AM 68.0 °F 55.9 °F 65% 30.21 in 10.0 mi North 4.6 mph - N/A   Clear
10:54 AM 71.1 °F 55.0 °F 57% 30.21 in 10.0 mi NE 6.9 mph - N/A   Partly Cloudy
11:54 AM 73.9 °F 52.0 °F 46% 30.21 in 10.0 mi NNE 8.1 mph - N/A   Scattered Clouds
12:54 PM 73.0 °F 51.1 °F 46% 30.19 in 10.0 mi NNE 5.8 mph - N/A   Scattered Clouds
1:54 PM 75.9 °F 51.1 °F 42% 30.19 in 10.0 mi North 9.2 mph - N/A   Scattered Clouds
1:56 PM 75.9 °F 51.1 °F 42% 30.19 in 10.0 mi North 9.2 mph - N/A   Mostly Cloudy
2:54 PM 77.0 °F 51.1 °F 40% 30.19 in 10.0 mi NE 3.5 mph - N/A   Mostly Cloudy
3:54 PM 77.0 °F 48.0 °F 36% 30.17 in 10.0 mi North 9.2 mph - N/A   Scattered Clouds
4:54 PM 77.0 °F 48.9 °F 37% 30.17 in 10.0 mi North 6.9 mph - N/A   Scattered Clouds
5:54 PM 75.9 °F 48.9 °F 38% 30.18 in 10.0 mi NNE 4.6 mph - N/A   Scattered Clouds
6:54 PM 73.9 °F 50.0 °F 43% 30.18 in 10.0 mi North 5.8 mph - N/A   Scattered Clouds
7:54 PM 70.0 °F 52.0 °F 53% 30.20 in 10.0 mi North 3.5 mph - N/A   Clear
8:54 PM 66.0 °F 55.9 °F 70% 30.22 in 10.0 mi NNW 3.5 mph - N/A   Mostly Cloudy
9:54 PM 64.9 °F 54.0 °F 68% 30.23 in 10.0 mi NNW 3.5 mph - N/A   Scattered Clouds
10:54 PM 64.0 °F 55.9 °F 75% 30.24 in 10.0 mi NW 3.5 mph - N/A   Partly Cloudy
11:54 PM 63.0 °F 55.9 °F 78% 30.25 in 10.0 mi Calm Calm - N/A   Scattered Clouds